FW2617 Weather Reports


time (UTC)temp
C
wind
direction
speed
KPH
gust
KPH
rain 1hr
cm
rain 24hr
cm
rain mn
cm
humidity
%
barometer
mb
20260506134504 13 346 11.3 20.9 0.00 0.00 0.00 80 1011.0
20260506133604 13 348 12.9 25.7 0.00 0.00 0.00 79 1010.9
20260506132704 13 346 9.7 22.5 0.00 0.00 0.00 80 1010.6
20260506131804 13 350 12.9 24.1 0.00 0.00 0.00 80 1010.2
20260506130904 13 348 12.9 22.5 0.00 0.00 0.00 80 1009.9
20260506130005 13 359 11.3 25.7 0.00 0.00 0.00 80 1009.9
20260506125404 13 351 11.3 25.7 0.00 0.00 0.00 80 1009.8
20260506124525 13 354 11.3 27.4 0.00 0.00 0.00 80 1009.8
20260506123604 13 358 9.7 20.9 0.00 0.00 0.00 81 1009.7
20260506122725 13 353 9.7 19.3 0.00 0.00 0.00 81 1009.6
20260506121804 13 353 11.3 17.7 0.00 0.00 0.00 81 1009.4
20260506120925 13 349 11.3 25.7 0.00 0.00 0.00 81 1009.3
20260506120004 13 352 9.7 22.5 0.00 0.00 0.00 80 1009.3
20260506115404 13 353 9.7 17.7 0.00 0.00 0.00 80 1009.2
20260506114504 14 349 11.3 19.3 0.00 0.00 0.00 80 1009.2
20260506113604 14 342 9.7 19.3 0.00 0.00 0.00 80 1008.9
20260506112704 14 352 9.7 20.9 0.00 0.00 0.00 80 1008.8
20260506111804 15 346 11.3 22.5 0.00 0.00 0.00 80 1008.6
20260506110925 15 348 11.3 25.7 0.00 0.00 0.00 80 1008.4
20260506110004 15 350 9.7 22.5 0.00 0.00 0.00 80 1008.2
20260506105404 15 354 9.7 22.5 0.00 0.00 0.00 80 1008.2
20260506104504 15 348 9.7 16.1 0.00 0.00 0.00 80 1008.0
20260506103604 15 351 9.7 17.7 0.00 0.00 0.00 80 1007.9
20260506102704 15 356 9.7 19.3 0.00 0.00 0.00 80 1007.6
20260506101804 15 350 9.7 19.3 0.00 0.00 0.00 80 1007.5
20260506100904 16 347 9.7 22.5 0.00 0.00 0.00 80 1007.4
20260506100004 16 350 8.0 20.9 0.00 0.00 0.00 80 1007.2
20260506095404 16 350 8.0 16.1 0.00 0.00 0.00 80 1007.2
20260506094504 16 352 8.0 17.7 0.00 0.00 0.00 80 1006.9
20260506093604 16 349 8.0 16.1 0.00 0.00 0.00 81 1006.9
20260506092704 16 353 8.0 16.1 0.00 0.00 0.00 81 1006.9
20260506091804 16 356 6.4 14.5 0.00 0.00 0.00 81 1007.0
20260506090925 16 354 8.0 14.5 0.00 0.00 0.00 81 1007.0
20260506090004 16 352 8.0 14.5 0.00 0.00 0.00 81 1007.0
20260506085404 16 351 8.0 16.1 0.00 0.00 0.00 80 1006.9
20260506084525 17 354 6.4 16.1 0.00 0.00 0.00 80 1006.8
20260506083604 17 353 6.4 16.1 0.00 0.00 0.00 80 1006.7
20260506082704 17 18 6.4 14.5 0.00 0.00 0.00 81 1006.6
20260506081804 17 26 6.4 16.1 0.00 0.00 0.00 80 1006.5
20260506080903 17 24 6.4 12.9 0.00 0.00 0.00 80 1006.5
20260506072704 17 13 6.4 14.5 0.00 0.00 0.00 80 1006.4
20260506071804 17 7 8.0 16.1 0.00 0.00 0.00 79 1006.3
20260506070903 17 4 8.0 17.7 0.00 0.00 0.00 79 1006.4
20260506061804 18 2 8.0 17.7 0.00 0.00 0.00 78 1006.3
20260506060904 18 1 9.7 20.9 0.00 0.00 0.00 78 1006.2
20260506050905 20 6 8.0 17.7 0.00 0.00 0.00 76 1006.0
20260506044504 20 6 8.0 20.9 0.00 0.00 0.00 74 1006.0
20260506043604 20 7 11.3 20.9 0.00 0.00 0.00 74 1006.0
20260506042704 21 5 9.7 17.7 0.00 0.00 0.00 73 1005.8
20260506041804 21 358 9.7 17.7 0.00 0.00 0.00 72 1005.9
20260506040925 21 359 8.0 17.7 0.00 0.00 0.00 72 1005.8
20260506040004 21 350 11.3 22.5 0.00 0.00 0.00 71 1005.8
20260506035404 22 353 9.7 20.9 0.00 0.00 0.00 72 1005.7
20260506034504 22 360 9.7 19.3 0.00 0.00 0.00 72 1005.3
20260506033604 22 16 8.0 19.3 0.00 0.00 0.00 72 1004.9
20260506032704 22 19 9.7 16.1 0.00 0.00 0.00 71 1004.8
20260506031804 22 27 11.3 20.9 0.00 0.00 0.00 71 1004.6
20260506030904 23 23 9.7 19.3 0.00 0.00 0.00 70 1004.4
20260506030004 23 360 11.3 22.5 0.00 0.00 0.00 69 1004.6
20260506025404 23 2 9.7 22.5 0.00 0.00 0.00 69 1004.7
20260506024504 24 15 9.7 20.9 0.00 0.00 0.00 69 1004.3
20260506023603 25 354 11.3 20.9 0.00 0.00 0.00 68 1003.9
20260506022725 25 352 9.7 19.3 0.00 0.00 0.00 68 1003.8
20260506021804 25 347 6.4 17.7 0.00 0.00 0.00 67 1003.4
20260506020904 26 352 6.4 16.1 0.00 0.00 0.00 68 1003.2
20260506020025 26 355 6.4 12.9 0.00 0.00 0.00 68 1002.8
20260506015404 26 11 3.2 12.9 0.00 0.00 0.00 68 1002.7
20260506014524 27 153 1.6 6.4 0.00 0.00 0.00 76 1002.5
20260506013604 27 184 0.0 3.2 0.00 0.00 0.00 76 1002.5
20260506012703 27 179 1.6 8.0 0.00 0.00 0.00 76 1002.3
20260506011804 27 161 3.2 12.9 0.00 0.00 0.00 76 1002.2
20260506010903 27 170 4.8 16.1 0.00 0.00 0.00 75 1002.2
20260506010004 27 310 3.2 11.3 0.00 0.00 0.00 75 1002.0
20260506005404 27 251 4.8 12.9 0.00 0.00 0.00 75 1001.7
20260506004504 27 181 4.8 12.9 0.00 0.00 0.00 75 1001.6
20260506003604 27 168 9.7 19.3 0.00 0.00 0.00 74 1001.4
20260506002725 28 165 9.7 19.3 0.00 0.00 0.00 73 1001.2
20260506001804 28 170 9.7 19.3 0.00 0.00 0.00 73 1001.4
20260506000924 28 164 9.7 22.5 0.00 0.00 0.00 72 1001.3
20260506000004 28 163 9.7 19.3 0.00 0.00 0.00 71 1001.0
20260505235404 28 163 9.7 17.7 0.00 0.00 0.00 71 1001.1
20260505234504 28 165 9.7 19.3 0.00 0.00 0.00 71 1001.2
20260505233603 29 163 8.0 19.3 0.00 0.00 0.00 71 1001.3
20260505232725 29 160 9.7 19.3 0.00 0.00 0.00 70 1001.2
20260505231804 30 159 11.3 22.5 0.00 0.00 0.00 70 1001.0
20260505230904 30 166 9.7 22.5 0.00 0.00 0.00 69 1001.0
20260505230004 30 163 9.7 22.5 0.00 0.00 0.00 70 1000.9
20260505225404 30 165 9.7 22.5 0.00 0.00 0.00 69 1000.9
20260505224504 30 158 9.7 19.3 0.00 0.00 0.00 69 1001.0
20260505223604 30 156 11.3 22.5 0.00 0.00 0.00 67 1000.9
20260505222704 31 161 11.3 22.5 0.00 0.00 0.00 66 1000.7
20260505221824 32 165 8.0 17.7 0.00 0.00 0.00 62 1000.6
20260505220904 31 166 8.0 17.7 0.00 0.00 0.00 59 1000.7
20260505220004 32 172 8.0 17.7 0.00 0.00 0.00 57 1000.6
20260505215425 32 181 8.0 16.1 0.00 0.00 0.00 58 1000.8
20260505214504 32 171 6.4 17.7 0.00 0.00 0.00 59 1000.8
20260505213624 32 180 8.0 19.3 0.00 0.00 0.00 59 1000.7
20260505212703 32 181 8.0 17.7 0.00 0.00 0.00 59 1000.7
20260505211824 32 172 9.7 20.9 0.00 0.00 0.00 60 1000.9
20260505210903 32 173 8.0 20.9 0.00 0.00 0.00 60 1001.0
20260505210025 32 198 8.0 19.3 0.00 0.00 0.00 60 1001.3
20260505205404 32 184 9.7 19.3 0.00 0.00 0.00 60 1001.4
20260505204504 32 169 8.0 19.3 0.00 0.00 0.00 60 1001.3
20260505203604 32 189 9.7 19.3 0.00 0.00 0.00 60 1001.4
20260505202725 32 193 8.0 19.3 0.00 0.00 0.00 60 1001.7
20260505201803 32 173 9.7 19.3 0.00 0.00 0.00 61 1001.7
20260505200904 31 185 9.7 22.5 0.00 0.00 0.00 62 1001.7
20260505200004 31 185 9.7 17.7 0.00 0.00 0.00 63 1001.7
20260505195404 31 178 11.3 20.9 0.00 0.00 0.00 62 1001.7
20260505194504 31 184 9.7 20.9 0.00 0.00 0.00 63 1001.8
20260505193604 31 197 8.0 20.9 0.00 0.00 0.00 62 1002.0
20260505192704 31 190 8.0 16.1 0.00 0.00 0.00 66 1002.1
20260505191803 30 191 9.7 17.7 0.00 0.00 0.00 65 1002.2
20260505190904 30 190 9.7 25.7 0.00 0.00 0.00 66 1002.2
20260505190004 30 189 9.7 27.4 0.00 0.00 0.00 66 1002.2
20260505185403 29 191 11.3 27.4 0.00 0.00 0.00 67 1002.4
20260505184504 29 202 11.3 24.1 0.00 0.00 0.00 67 1002.5
20260505183604 28 193 12.9 27.4 0.00 0.00 0.00 69 1002.6
20260505182703 28 179 11.3 27.4 0.00 0.00 0.00 69 1002.6
20260505181804 28 195 12.9 22.5 0.00 0.00 0.00 70 1002.7
20260505180904 28 196 11.3 24.1 0.00 0.00 0.00 70 1002.7
20260505180004 28 192 12.9 30.6 0.00 0.00 0.00 70 1002.8
20260505175404 28 197 14.5 30.6 0.00 0.00 0.00 71 1002.9
20260505174525 27 194 11.3 20.9 0.00 0.00 0.00 73 1002.8
20260505173603 27 194 12.9 27.4 0.00 0.00 0.00 73 1002.6
20260505172704 27 196 12.9 27.4 0.00 0.00 0.00 73 1002.6
20260505171825 27 189 12.9 29.0 0.00 0.00 0.00 73 1002.6
20260505170903 27 184 11.3 24.1 0.00 0.00 0.00 74 1002.5
20260505170004 26 190 14.5 27.4 0.00 0.00 0.00 75 1002.6
20260505165403 26 191 14.5 27.4 0.00 0.00 0.00 75 1002.6
20260505164525 26 188 14.5 41.8 0.00 0.00 0.00 75 1002.5
20260505163604 26 192 11.3 30.6 0.00 0.00 0.00 75 1002.5
20260505162703 26 196 12.9 24.1 0.00 0.00 0.00 76 1002.7
20260505161804 26 188 12.9 32.2 0.00 0.00 0.00 76 1002.8
20260505160903 26 190 14.5 27.4 0.00 0.00 0.00 77 1002.8
20260505152704 24 187 16.1 32.2 0.00 0.00 0.00 82 1002.6
20260505151804 24 184 12.9 29.0 0.00 0.00 0.00 82 1002.6
20260505150904 24 195 14.5 35.4 0.00 0.00 0.00 83 1002.8